Погода в Старом Кривине

Украина / Хмельницкая область     50°21′00″N   26°42′14″E
темп.,
°C
ветер,
м/с
пор.,
м/с
влажн.,
%
обл.,
%
осадки,
мм/ч
давл.,
гПа
погр.,
м
16 мая, вс
вс1600:00+10ю11915 0.0 101110
03:00+9ююв22935 0.0 101216
06:00+9юв34946 0.0 101159
09:00+15юв357776 0.0 1011382
12:00+19юв5759100 0.0 10101193
15:00+22ююв685226 0.8 10091908
18:00+18юв51070100 0.9 1008658
21:00+14ююв3786100 2.1 1008144
17 мая, пн
пн1700:00+13ю389292 1.2 1008234
03:00+12юз3697100 1.5 1008171
06:00+12зсз229727 0.4 100867
09:00+15сз3482100 0.4 1008478
12:00+18ссз3362100 0.0 10071082
15:00+20ссз3257100 0.1 10051485
18:00+19ссз2364100 0.4 1004879
21:00+14ссв1183100 0.6 100411
18 мая, вт
вт1800:00+13всв11885 0.0 100210
03:00+11зюз2292100 0.0 100223
06:00+11з2594100 0.4 1001149
09:00+11з61097100 5.4 1002712
12:00+10з71296100 8.7 1004725
15:00+11з7129099 11.3 10051166
18:00+10з71389100 0.3 1006967
21:00+10зюз4119344 0.7 1006475
19 мая, ср
ср1900:00+9зюз613945 0.1 1007474
03:00+9зюз61493100 0.2 1007621
06:00+9з7139398 0.1 1008821
09:00+10з71485100 0.1 1009976
12:00+14з8126099 0.1 10101746
15:00+15зсз81157100 0.3 10111906
18:00+14зсз6966100 0.1 10121381
21:00+10з37858 0.1 1014131
20 мая, чт
чт2000:00+8з359314 0.0 101696
03:00+7з239496 0.0 101754
06:00+7зсз2593100 0.0 1017125
09:00+11зсз3473100 0.0 1018448
12:00+14з3359100 0.0 10181252
15:00+16зюз345269 0.4 10181707
18:00+14з3664100 0.1 1018309
21:00+10з12823 0.1 101810